sat.trackr.live / text

‹ back to catalog

GSAT0201 (GALILEO 5)

NORAD 40128 · 2014-050A

PAYLOAD ACTIVE UNKNOWN

§ Identity

Operator
Country
ESA
Launch date
2014-08-22
Launch site
FRGUI
Launch vehicle
Mass (kg)
RCS (m²)
4.12

Purposes: earth_obs, nav

External: N2YO · Heavens-Above · Gunter

§ Orbital elements

Epoch: 2026-09-18T15:52:21.412416Z

Period
776.20 min
Inclination
48.7780°
Eccentricity
0.1687129
Mean motion
1.85519745 rev/d
Perigee alt
16,879.2 km
Apogee alt
26,319.5 km
Semi-major
27,977.5 km
B*
0.0000e+0
RAAN
269.5934°
Arg perigee
183.0003°
Mean anomaly
175.8597°
Rev number
8,005

§ Raw data

GSAT0201 (GALILEO 5)1 40128U 14050A   26261.66135894  .00000005  00000+0  00000+0 0  99972 40128  48.7780 269.5934 1687129 183.0003 175.8597  1.85519745 80058

JSON: /api/v1/satellites/40128 · /tle

For live sub-satellite position, see the globe view (requires WebGL).

§ Visibility from observer

Set your observer location to see the next 7 days of passes ≥ 10°. The values pass through the URL so the page stays shareable.

No JS? Fill the form by hand. The geolocation button needs JavaScript.